TimeEST,TemperatureF,Dew PointF,Humidity,Sea Level PressureIn,VisibilityMPH,Wind Direction,Wind SpeedMPH,Gust SpeedMPH,PrecipitationIn,Events,Conditions,WindDirDegrees,DateUTC
12:10 AM,-9999,-9999,N/A,-9999,-9999.0,North,-9999.0,-,N/A,,Unknown,0,2013-02-28 05:10:00
12:54 AM,41.0,37.0,86,29.65,10.0,Calm,Calm,-,N/A,,Overcast,0,2013-02-28 05:54:00
1:54 AM,42.1,37.0,82,29.65,10.0,Calm,Calm,-,0.00,,Overcast,0,2013-02-28 06:54:00
2:54 AM,44.1,36.0,73,29.65,10.0,WNW,3.5,-,N/A,,Overcast,300,2013-02-28 07:54:00
3:54 AM,44.1,36.0,73,29.65,10.0,NW,9.2,-,N/A,,Overcast,310,2013-02-28 08:54:00
4:54 AM,43.0,36.0,76,29.65,10.0,NW,5.8,-,N/A,,Overcast,310,2013-02-28 09:54:00
5:54 AM,42.1,37.9,85,29.66,10.0,Calm,Calm,-,0.00,Rain,Light Rain,0,2013-02-28 10:54:00
6:54 AM,41.0,35.1,79,29.69,10.0,NW,12.7,-,0.02,Rain,Light Rain,310,2013-02-28 11:54:00
7:54 AM,41.0,35.1,79,29.69,10.0,Calm,Calm,-,0.00,,Overcast,0,2013-02-28 12:54:00
8:54 AM,43.0,30.9,62,29.69,10.0,WNW,4.6,-,N/A,,Overcast,300,2013-02-28 13:54:00
9:54 AM,44.1,28.0,53,29.68,10.0,NW,5.8,-,N/A,,Mostly Cloudy,310,2013-02-28 14:54:00
10:54 AM,45.0,26.1,48,29.67,10.0,WNW,8.1,-,N/A,,Clear,300,2013-02-28 15:54:00
11:54 AM,46.0,26.1,46,29.66,10.0,WNW,5.8,-,N/A,,Partly Cloudy,300,2013-02-28 16:54:00
12:54 PM,46.0,24.1,42,29.64,10.0,NW,12.7,20.7,N/A,,Overcast,320,2013-02-28 17:54:00
1:54 PM,45.0,25.0,46,29.64,10.0,NW,9.2,20.7,N/A,,Partly Cloudy,310,2013-02-28 18:54:00
2:54 PM,46.0,28.0,50,29.65,10.0,WNW,10.4,18.4,N/A,,Mostly Cloudy,300,2013-02-28 19:54:00
3:54 PM,45.0,28.0,52,29.65,10.0,West,11.5,16.1,N/A,,Overcast,280,2013-02-28 20:54:00
4:54 PM,45.0,28.0,52,29.65,10.0,West,6.9,-,N/A,,Overcast,270,2013-02-28 21:54:00
5:54 PM,44.1,27.0,51,29.67,10.0,WNW,6.9,-,N/A,,Overcast,290,2013-02-28 22:54:00
6:54 PM,43.0,28.0,56,29.70,10.0,WNW,10.4,24.2,N/A,,Overcast,300,2013-02-28 23:54:00
7:54 PM,42.1,28.0,58,29.72,10.0,WNW,5.8,-,N/A,,Overcast,290,2013-03-01 00:54:00
8:54 PM,42.1,28.0,58,29.73,10.0,West,4.6,-,N/A,,Overcast,280,2013-03-01 01:54:00
9:54 PM,42.1,28.0,58,29.73,10.0,West,5.8,-,N/A,,Overcast,280,2013-03-01 02:54:00
10:54 PM,42.1,28.0,58,29.72,10.0,WNW,6.9,-,N/A,,Overcast,290,2013-03-01 03:54:00
11:54 PM,42.1,28.0,58,29.71,10.0,WNW,5.8,-,N/A,,Overcast,290,2013-03-01 04:54:00